"Sample Date","Sample Time","Sample Value","Units","Flow Rate","Number Channels","Micron Size 0","Counts/Channel 0","Micron Size 1","Counts/Channel 1","Micron Size 2","Counts/Channel 2","Micron Size 3","Counts/Channel 3","Micron Size 4","Counts/Channel 4","Micron Size 5","Counts/Channel 5","Micron Size 6","Counts/Channel 6","Micron Size 7","Counts/Channel 7","Micron Size 8","Counts/Channel 8","Micron Size 9","Counts/Channel 9","Micron Size 10","Counts/Channel 10","Micron Size 11","Counts/Channel 11","Micron Size 12","Counts/Channel 12","Micron Size 13","Counts/Channel 13","Micron Size 14","Counts/Channel 14","Micron Size 15","Counts/Channel 15","Micron Size 16","Counts/Channel 16","Micron Size 17","Counts/Channel 17","Micron Size 18","Counts/Channel 18","Micron Size 19","Counts/Channel 19","Micron Size 20","Counts/Channel 20","Micron Size 21","Counts/Channel 21","Micron Size 22","Counts/Channel 22","Micron Size 23","Counts/Channel 23","Micron Size 24","Counts/Channel 24","Micron Size 25","Counts/Channel 25","Micron Size 26","Counts/Channel 26","Micron Size 27","Counts/Channel 27","Micron Size 28","Counts/Channel 28","Micron Size 29","Counts/Channel 29","Micron Size 30","Counts/Channel 30","Micron Size 31","Counts/Channel 31"
"05/04/08","14:00:03",4388.000,"cc",28365.455,6,0.100,3327.000,0.200,672.000,0.300,238.000,0.500,67.000,1.000,76.000,5.000,8.000
"05/04/08","14:00:09",4461.000,"cc",27552.633,6,0.100,3196.000,0.200,774.000,0.300,271.000,0.500,102.000,1.000,116.000,5.000,2.000
"05/04/08","14:00:15",2556.000,"cc",28497.205,6,0.100,1791.000,0.200,451.000,0.300,155.000,0.500,62.000,1.000,95.000,5.000,2.000
"05/04/08","14:00:21",3689.000,"cc",28780.221,6,0.100,2771.000,0.200,632.000,0.300,200.000,0.500,47.000,1.000,39.000,5.000,0
"05/04/08","14:00:27",4705.000,"cc",28493.949,6,0.100,3624.000,0.200,797.000,0.300,221.000,0.500,36.000,1.000,26.000,5.000,1.000
"05/04/08","14:00:33",5610.000,"cc",28294.922,6,0.100,4401.000,0.200,955.000,0.300,218.000,0.500,28.000,1.000,8.000,5.000,0
"05/04/08","14:00:39",3456.000,"cc",28271.531,6,0.100,2657.000,0.200,581.000,0.300,183.000,0.500,33.000,1.000,2.000,5.000,0
"05/04/08","14:00:45",10835.000,"cc",28308.662,6,0.100,8734.000,0.200,1773.000,0.300,282.000,0.500,44.000,1.000,2.000,5.000,0
"05/04/08","14:00:51",7096.000,"cc",28307.205,6,0.100,5669.000,0.200,1150.000,0.300,231.000,0.500,41.000,1.000,5.000,5.000,0
"05/04/08","14:00:57",3575.000,"cc",28316.508,6,0.100,2773.000,0.200,609.000,0.300,166.000,0.500,23.000,1.000,4.000,5.000,0
"05/04/08","14:01:03",2832.000,"cc",28305.662,6,0.100,2174.000,0.200,474.000,0.300,117.000,0.500,62.000,1.000,5.000,5.000,0
"05/04/08","14:01:09",3900.000,"cc",28367.313,6,0.100,3051.000,0.200,689.000,0.300,93.000,0.500,61.000,1.000,6.000,5.000,0
"05/04/08","14:01:15",2813.000,"cc",28292.295,6,0.100,2176.000,0.200,520.000,0.300,64.000,0.500,49.000,1.000,4.000,5.000,0
"05/04/08","14:01:21",5313.000,"cc",28293.424,6,0.100,4283.000,0.200,849.000,0.300,127.000,0.500,48.000,1.000,6.000,5.000,0
"05/04/08","14:01:27",6006.000,"cc",28299.178,6,0.100,4811.000,0.200,1017.000,0.300,121.000,0.500,47.000,1.000,10.000,5.000,0
"05/04/08","14:01:33",3914.000,"cc",28352.523,6,0.100,3097.000,0.200,637.000,0.300,118.000,0.500,56.000,1.000,6.000,5.000,0
"05/04/08","14:01:39",2891.000,"cc",28322.973,6,0.100,2230.000,0.200,502.000,0.300,103.000,0.500,50.000,1.000,6.000,5.000,0
"05/04/08","14:01:45",4634.000,"cc",28312.006,6,0.100,3705.000,0.200,771.000,0.300,107.000,0.500,45.000,1.000,6.000,5.000,0
"05/04/08","14:01:51",2452.000,"cc",28319.281,6,0.100,1939.000,0.200,402.000,0.300,69.000,0.500,35.000,1.000,7.000,5.000,0
"05/04/08","14:01:57",3071.000,"cc",28325.586,6,0.100,2429.000,0.200,521.000,0.300,83.000,0.500,37.000,1.000,1.000,5.000,0
"05/04/08","14:02:03",2326.000,"cc",28284.180,6,0.100,1780.000,0.200,423.000,0.300,73.000,0.500,46.000,1.000,4.000,5.000,0
"05/04/08","14:02:09",4303.000,"cc",28351.549,6,0.100,3370.000,0.200,733.000,0.300,126.000,0.500,67.000,1.000,7.000,5.000,0
"05/04/08","14:02:15",4633.000,"cc",28336.129,6,0.100,3710.000,0.200,733.000,0.300,128.000,0.500,58.000,1.000,4.000,5.000,0
"05/04/08","14:02:21",2975.000,"cc",28268.584,6,0.100,2329.000,0.200,518.000,0.300,78.000,0.500,49.000,1.000,1.000,5.000,0
"05/04/08","14:02:27",2310.000,"cc",28339.857,6,0.100,1781.000,0.200,391.000,0.300,88.000,0.500,45.000,1.000,5.000,5.000,0
"05/04/08","14:02:33",1811.000,"cc",28297.773,6,0.100,1410.000,0.200,287.000,0.300,60.000,0.500,51.000,1.000,3.000,5.000,0
"05/04/08","14:02:39",2322.000,"cc",28282.588,6,0.100,1761.000,0.200,422.000,0.300,81.000,0.500,53.000,1.000,5.000,5.000,0
"05/04/08","14:02:45",2642.000,"cc",28319.922,6,0.100,2032.000,0.200,456.000,0.300,87.000,0.500,63.000,1.000,4.000,5.000,0
"05/04/08","14:02:51",1610.000,"cc",28302.604,6,0.100,1241.000,0.200,268.000,0.300,46.000,0.500,50.000,1.000,5.000,5.000,0
"05/04/08","14:02:57",1520.000,"cc",28356.764,6,0.100,1087.000,0.200,283.000,0.300,81.000,0.500,62.000,1.000,7.000,5.000,0
"05/04/08","14:03:03",1708.000,"cc",28377.047,6,0.100,1222.000,0.200,314.000,0.300,83.000,0.500,80.000,1.000,9.000,5.000,0
"05/04/08","14:03:09",1416.000,"cc",28281.414,6,0.100,1037.000,0.200,247.000,0.300,62.000,0.500,56.000,1.000,14.000,5.000,0
"05/04/08","14:03:15",1239.000,"cc",28260.643,6,0.100,898.000,0.200,234.000,0.300,46.000,0.500,59.000,1.000,2.000,5.000,0
"05/04/08","14:03:21",1935.000,"cc",28326.527,6,0.100,1412.000,0.200,359.000,0.300,88.000,0.500,74.000,1.000,2.000,5.000,0
"05/04/08","14:03:27",3208.000,"cc",28349.609,6,0.100,2494.000,0.200,558.000,0.300,90.000,0.500,66.000,1.000,0,5.000,0
"05/04/08","14:03:33",2138.000,"cc",28283.756,6,0.100,1649.000,0.200,394.000,0.300,49.000,0.500,43.000,1.000,3.000,5.000,0
"05/04/08","14:03:39",9920.000,"cc",28060.602,6,0.100,7428.000,0.200,1493.000,0.300,500.000,0.500,366.000,1.000,108.000,5.000,25.000
"05/04/08","14:03:45",4175.000,"cc",26454.402,6,0.100,2917.000,0.200,768.000,0.300,246.000,0.500,192.000,1.000,52.000,5.000,0
"05/04/08","14:03:51",2243.000,"cc",27382.293,6,0.100,1715.000,0.200,361.000,0.300,87.000,0.500,71.000,1.000,9.000,5.000,0
"05/04/08","14:03:57",2066.000,"cc",27916.811,6,0.100,1543.000,0.200,359.000,0.300,85.000,0.500,69.000,1.000,10.000,5.000,0
"05/04/08","14:04:03",1830.000,"cc",28024.617,6,0.100,1391.000,0.200,303.000,0.300,65.000,0.500,61.000,1.000,10.000,5.000,0
"05/04/08","14:04:09",1949.000,"cc",28095.811,6,0.100,1485.000,0.200,342.000,0.300,69.000,0.500,49.000,1.000,4.000,5.000,0
"05/04/08","14:04:15",2422.000,"cc",28183.783,6,0.100,1865.000,0.200,412.000,0.300,83.000,0.500,59.000,1.000,3.000,5.000,0
"05/04/08","14:04:21",2129.000,"cc",28358.516,6,0.100,1629.000,0.200,355.000,0.300,72.000,0.500,67.000,1.000,6.000,5.000,0
"05/04/08","14:04:27",1594.000,"cc",28585.662,6,0.100,1176.000,0.200,291.000,0.300,57.000,0.500,66.000,1.000,4.000,5.000,0
"05/04/08","14:04:33",2855.000,"cc",28916.703,6,0.100,2203.000,0.200,473.000,0.300,98.000,0.500,73.000,1.000,8.000,5.000,0
"05/04/08","14:04:39",4077.000,"cc",29307.436,6,0.100,3261.000,0.200,649.000,0.300,115.000,0.500,48.000,1.000,4.000,5.000,0
"05/04/08","14:04:45",2892.000,"cc",29378.535,6,0.100,2236.000,0.200,519.000,0.300,75.000,0.500,59.000,1.000,3.000,5.000,0
"05/04/08","14:04:51",1808.000,"cc",29135.889,6,0.100,1390.000,0.200,306.000,0.300,61.000,0.500,49.000,1.000,2.000,5.000,0
"05/04/08","14:04:57",1882.000,"cc",28651.150,6,0.100,1429.000,0.200,313.000,0.300,78.000,0.500,60.000,1.000,2.000,5.000,0
"05/04/08","14:05:03",1665.000,"cc",28414.820,6,0.100,1243.000,0.200,285.000,0.300,71.000,0.500,64.000,1.000,2.000,5.000,0
"05/04/08","14:05:09",1338.000,"cc",28243.631,6,0.100,990.000,0.200,230.000,0.300,63.000,0.500,52.000,1.000,3.000,5.000,0
"05/04/08","14:05:15",1342.000,"cc",28321.121,6,0.100,936.000,0.200,242.000,0.300,81.000,0.500,80.000,1.000,3.000,5.000,0
"05/04/08","14:05:21",1582.000,"cc",28305.190,6,0.100,1176.000,0.200,268.000,0.300,87.000,0.500,47.000,1.000,4.000,5.000,0
"05/04/08","14:05:27",1823.000,"cc",28321.822,6,0.100,1386.000,0.200,323.000,0.300,52.000,0.500,58.000,1.000,4.000,5.000,0
"05/04/08","14:05:33",2512.000,"cc",28325.668,6,0.100,1914.000,0.200,446.000,0.300,87.000,0.500,65.000,1.000,0,5.000,0
"05/04/08","14:05:39",3286.000,"cc",28276.992,6,0.100,2532.000,0.200,587.000,0.300,98.000,0.500,61.000,1.000,8.000,5.000,0
"05/04/08","14:05:45",3955.000,"cc",28308.727,6,0.100,3062.000,0.200,680.000,0.300,122.000,0.500,86.000,1.000,5.000,5.000,0
"05/04/08","14:05:51",3913.000,"cc",28361.977,6,0.100,3082.000,0.200,658.000,0.300,103.000,0.500,65.000,1.000,5.000,5.000,0
"05/04/08","14:05:57",3916.000,"cc",28345.590,6,0.100,3081.000,0.200,664.000,0.300,108.000,0.500,57.000,1.000,6.000,5.000,0
"05/04/08","14:06:03",3374.000,"cc",28246.363,6,0.100,2663.000,0.200,547.000,0.300,101.000,0.500,58.000,1.000,5.000,5.000,0
"05/04/08","14:06:09",6324.000,"cc",27892.826,6,0.100,5415.000,0.200,592.000,0.300,168.000,0.500,124.000,1.000,21.000,5.000,4.000
"05/04/08","14:06:15",4211.000,"cc",26929.461,6,0.100,3312.000,0.200,696.000,0.300,112.000,0.500,84.000,1.000,7.000,5.000,0
"05/04/08","14:06:21",11054.000,"cc",27423.307,6,0.100,9059.000,0.200,1735.000,0.300,189.000,0.500,68.000,1.000,3.000,5.000,0
"05/04/08","14:06:27",7536.000,"cc",27402.182,6,0.100,6098.000,0.200,1209.000,0.300,152.000,0.500,73.000,1.000,4.000,5.000,0
"05/04/08","14:06:33",5828.000,"cc",27326.176,6,0.100,4692.000,0.200,924.000,0.300,132.000,0.500,73.000,1.000,7.000,5.000,0
"05/04/08","14:06:39",7250.000,"cc",27280.199,6,0.100,5788.000,0.200,1210.000,0.300,170.000,0.500,78.000,1.000,4.000,5.000,0
"05/04/08","14:06:45",4203.000,"cc",27360.738,6,0.100,3358.000,0.200,668.000,0.300,105.000,0.500,68.000,1.000,4.000,5.000,0
"05/04/08","14:06:51",6064.000,"cc",27366.459,6,0.100,4873.000,0.200,977.000,0.300,131.000,0.500,78.000,1.000,5.000,5.000,0
"05/04/08","14:06:57",5483.000,"cc",27399.357,6,0.100,4417.000,0.200,860.000,0.300,118.000,0.500,84.000,1.000,4.000,5.000,0
"05/04/08","14:07:03",5073.000,"cc",27359.799,6,0.100,4083.000,0.200,802.000,0.300,119.000,0.500,63.000,1.000,6.000,5.000,0
"05/04/08","14:07:09",3414.000,"cc",27368.025,6,0.100,2670.000,0.200,568.000,0.300,102.000,0.500,68.000,1.000,6.000,5.000,0
"05/04/08","14:07:15",2309.000,"cc",27395.951,6,0.100,1773.000,0.200,414.000,0.300,64.000,0.500,52.000,1.000,6.000,5.000,0
"05/04/08","14:07:21",1936.000,"cc",27442.486,6,0.100,1484.000,0.200,329.000,0.300,71.000,0.500,46.000,1.000,6.000,5.000,0
"05/04/08","14:07:27",2398.000,"cc",27531.908,6,0.100,1813.000,0.200,404.000,0.300,71.000,0.500,81.000,1.000,29.000,5.000,0
"05/04/08","14:07:33",2141.000,"cc",27617.238,6,0.100,1702.000,0.200,313.000,0.300,59.000,0.500,56.000,1.000,11.000,5.000,0
"05/04/08","14:07:39",1595.000,"cc",27848.754,6,0.100,1218.000,0.200,253.000,0.300,62.000,0.500,56.000,1.000,6.000,5.000,0
"05/04/08","14:07:45",2262.000,"cc",28173.031,6,0.100,1757.000,0.200,363.000,0.300,71.000,0.500,65.000,1.000,6.000,5.000,0
"05/04/08","14:07:51",1907.000,"cc",28485.387,6,0.100,1425.000,0.200,340.000,0.300,84.000,0.500,49.000,1.000,9.000,5.000,0
"05/04/08","14:07:57",2075.000,"cc",28941.324,6,0.100,1424.000,0.200,359.000,0.300,92.000,0.500,98.000,1.000,102.000,5.000,0
"05/04/08","14:08:03",1361.000,"cc",29235.037,6,0.100,1002.000,0.200,261.000,0.300,41.000,0.500,51.000,1.000,6.000,5.000,0
"05/04/08","14:08:09",1241.000,"cc",29282.113,6,0.100,903.000,0.200,233.000,0.300,45.000,0.500,56.000,1.000,4.000,5.000,0
"05/04/08","14:08:15",1174.000,"cc",29211.443,6,0.100,856.000,0.200,224.000,0.300,36.000,0.500,54.000,1.000,4.000,5.000,0
"05/04/08","14:08:21",1087.000,"cc",29296.221,6,0.100,776.000,0.200,200.000,0.300,43.000,0.500,65.000,1.000,3.000,5.000,0
"05/04/08","14:08:27",1259.000,"cc",29270.928,6,0.100,892.000,0.200,249.000,0.300,61.000,0.500,49.000,1.000,8.000,5.000,0
"05/04/08","14:08:33",1151.000,"cc",29240.297,6,0.100,825.000,0.200,227.000,0.300,41.000,0.500,45.000,1.000,13.000,5.000,0
"05/04/08","14:08:39",1239.000,"cc",29144.217,6,0.100,896.000,0.200,238.000,0.300,51.000,0.500,44.000,1.000,10.000,5.000,0
"05/04/08","14:08:45",1395.000,"cc",29286.674,6,0.100,1017.000,0.200,265.000,0.300,52.000,0.500,48.000,1.000,13.000,5.000,0
"05/04/08","14:08:51",6295.000,"cc",29151.033,6,0.100,4069.000,0.200,1360.000,0.300,530.000,0.500,203.000,1.000,77.000,5.000,56.000
"05/04/08","14:08:57",9102.000,"cc",27329.750,6,0.100,5914.000,0.200,2030.000,0.300,781.000,0.500,305.000,1.000,52.000,5.000,20.000
"05/04/08","14:09:03",3200.000,"cc",28395.902,6,0.100,2396.000,0.200,594.000,0.300,119.000,0.500,75.000,1.000,16.000,5.000,0
"05/04/08","14:09:09",1959.000,"cc",29153.143,6,0.100,1428.000,0.200,374.000,0.300,81.000,0.500,62.000,1.000,14.000,5.000,0
"05/04/08","14:09:15",1729.000,"cc",29235.141,6,0.100,1242.000,0.200,366.000,0.300,65.000,0.500,48.000,1.000,8.000,5.000,0
"05/04/08","14:09:21",1631.000,"cc",29266.967,6,0.100,1145.000,0.200,351.000,0.300,69.000,0.500,62.000,1.000,4.000,5.000,0
"05/04/08","14:09:27",1411.000,"cc",29281.033,6,0.100,969.000,0.200,318.000,0.300,59.000,0.500,51.000,1.000,14.000,5.000,0
"05/04/08","14:09:33",1406.000,"cc",29307.188,6,0.100,988.000,0.200,290.000,0.300,53.000,0.500,64.000,1.000,11.000,5.000,0
"05/04/08","14:09:39",1422.000,"cc",28918.758,6,0.100,1032.000,0.200,276.000,0.300,62.000,0.500,44.000,1.000,8.000,5.000,0
"05/04/08","14:09:45",1381.000,"cc",28522.264,6,0.100,1014.000,0.200,265.000,0.300,50.000,0.500,49.000,1.000,3.000,5.000,0
"05/04/08","14:09:51",1402.000,"cc",28324.648,6,0.100,1054.000,0.200,251.000,0.300,38.000,0.500,43.000,1.000,16.000,5.000,0
"05/04/08","14:09:57",1142.000,"cc",28325.098,6,0.100,864.000,0.200,222.000,0.300,17.000,0.500,31.000,1.000,8.000,5.000,0
"05/04/08","14:10:03",1216.000,"cc",28245.811,6,0.100,922.000,0.200,229.000,0.300,28.000,0.500,34.000,1.000,3.000,5.000,0
"05/04/08","14:10:09",2446.000,"cc",28324.147,6,0.100,1898.000,0.200,440.000,0.300,68.000,0.500,38.000,1.000,2.000,5.000,0
"05/04/08","14:10:15",2389.000,"cc",28320.602,6,0.100,1869.000,0.200,392.000,0.300,68.000,0.500,52.000,1.000,8.000,5.000,0
"05/04/08","14:10:21",1701.000,"cc",28212.086,6,0.100,1306.000,0.200,302.000,0.300,31.000,0.500,56.000,1.000,6.000,5.000,0
"05/04/08","14:10:27",1783.000,"cc",28365.264,6,0.100,1374.000,0.200,303.000,0.300,59.000,0.500,43.000,1.000,4.000,5.000,0
"05/04/08","14:10:33",1428.000,"cc",28334.713,6,0.100,1044.000,0.200,262.000,0.300,68.000,0.500,48.000,1.000,6.000,5.000,0
"05/04/08","14:10:39",1188.000,"cc",28308.182,6,0.100,848.000,0.200,230.000,0.300,52.000,0.500,48.000,1.000,10.000,5.000,0
"05/04/08","14:10:45",1174.000,"cc",28364.168,6,0.100,862.000,0.200,209.000,0.300,41.000,0.500,56.000,1.000,6.000,5.000,0
"05/04/08","14:10:51",1273.000,"cc",28286.488,6,0.100,916.000,0.200,240.000,0.300,43.000,0.500,65.000,1.000,9.000,5.000,0
"05/04/08","14:10:57",1258.000,"cc",28315.430,6,0.100,909.000,0.200,241.000,0.300,49.000,0.500,52.000,1.000,7.000,5.000,0
"05/04/08","14:11:03",1433.000,"cc",28279.607,6,0.100,1047.000,0.200,288.000,0.300,45.000,0.500,47.000,1.000,6.000,5.000,0
"05/04/08","14:11:09",2205.000,"cc",28332.176,6,0.100,1712.000,0.200,371.000,0.300,58.000,0.500,59.000,1.000,5.000,5.000,0
"05/04/08","14:11:15",1748.000,"cc",28359.951,6,0.100,1380.000,0.200,261.000,0.300,48.000,0.500,53.000,1.000,6.000,5.000,0
"05/04/08","14:11:21",3173.000,"cc",28291.160,6,0.100,2023.000,0.200,477.000,0.300,178.000,0.500,183.000,1.000,308.000,5.000,4.000
"05/04/08","14:11:27",2133.000,"cc",28367.621,6,0.100,1497.000,0.200,363.000,0.300,89.000,0.500,90.000,1.000,94.000,5.000,0
"05/04/08","14:11:33",1712.000,"cc",28331.690,6,0.100,1273.000,0.200,307.000,0.300,62.000,0.500,64.000,1.000,6.000,5.000,0
"05/04/08","14:11:39",5865.000,"cc",27874.479,6,0.100,4773.000,0.200,569.000,0.300,249.000,0.500,200.000,1.000,63.000,5.000,11.000
"05/04/08","14:11:45",1486.000,"cc",27736.115,6,0.100,974.000,0.200,284.000,0.300,87.000,0.500,91.000,1.000,47.000,5.000,3.000
"05/04/08","14:11:51",1722.000,"cc",27700.688,6,0.100,962.000,0.200,298.000,0.300,124.000,0.500,157.000,1.000,177.000,5.000,4.000
"05/04/08","14:11:57",1216.000,"cc",27694.330,6,0.100,768.000,0.200,264.000,0.300,58.000,0.500,71.000,1.000,55.000,5.000,0
"05/04/08","14:12:03",1161.000,"cc",27676.301,6,0.100,832.000,0.200,205.000,0.300,56.000,0.500,54.000,1.000,14.000,5.000,0
"05/04/08","14:12:09",1376.000,"cc",27708.762,6,0.100,892.000,0.200,239.000,0.300,69.000,0.500,87.000,1.000,89.000,5.000,0
"05/04/08","14:12:15",1442.000,"cc",27784.477,6,0.100,915.000,0.200,271.000,0.300,76.000,0.500,95.000,1.000,83.000,5.000,2.000
"05/04/08","14:12:21",1699.000,"cc",27993.951,6,0.100,1196.000,0.200,278.000,0.300,98.000,0.500,85.000,1.000,42.000,5.000,0
"05/04/08","14:12:27",1532.000,"cc",28325.113,6,0.100,1028.000,0.200,278.000,0.300,78.000,0.500,85.000,1.000,61.000,5.000,2.000
"05/04/08","14:12:33",1336.000,"cc",28648.815,6,0.100,956.000,0.200,236.000,0.300,73.000,0.500,67.000,1.000,4.000,5.000,0
"05/04/08","14:12:39",1576.000,"cc",29051.908,6,0.100,942.000,0.200,319.000,0.300,121.000,0.500,123.000,1.000,70.000,5.000,1.000
"05/04/08","14:12:45",1207.000,"cc",29240.453,6,0.100,840.000,0.200,216.000,0.300,81.000,0.500,67.000,1.000,3.000,5.000,0
"05/04/08","14:12:51",1517.000,"cc",29176.397,6,0.100,1116.000,0.200,276.000,0.300,72.000,0.500,50.000,1.000,3.000,5.000,0
"05/04/08","14:12:57",1662.000,"cc",29186.602,6,0.100,1211.000,0.200,328.000,0.300,70.000,0.500,50.000,1.000,3.000,5.000,0
"05/04/08","14:13:03",1648.000,"cc",28776.986,6,0.100,1206.000,0.200,269.000,0.300,79.000,0.500,57.000,1.000,36.000,5.000,1.000
"05/04/08","14:13:09",1389.000,"cc",28485.416,6,0.100,1006.000,0.200,263.000,0.300,73.000,0.500,45.000,1.000,2.000,5.000,0
"05/04/08","14:13:15",1468.000,"cc",28322.143,6,0.100,1047.000,0.200,278.000,0.300,89.000,0.500,50.000,1.000,4.000,5.000,0
"05/04/08","14:13:21",1397.000,"cc",28310.621,6,0.100,975.000,0.200,275.000,0.300,99.000,0.500,46.000,1.000,2.000,5.000,0
"05/04/08","14:13:27",1292.000,"cc",28299.229,6,0.100,932.000,0.200,225.000,0.300,88.000,0.500,45.000,1.000,2.000,5.000,0
"05/04/08","14:13:33",1275.000,"cc",28330.301,6,0.100,933.000,0.200,229.000,0.300,74.000,0.500,34.000,1.000,5.000,5.000,0
"05/04/08","14:13:39",1305.000,"cc",28298.164,6,0.100,925.000,0.200,262.000,0.300,77.000,0.500,39.000,1.000,2.000,5.000,0
"05/04/08","14:13:45",1234.000,"cc",28362.195,6,0.100,859.000,0.200,232.000,0.300,86.000,0.500,52.000,1.000,5.000,5.000,0
"05/04/08","14:13:51",1432.000,"cc",28366.049,6,0.100,1000.000,0.200,283.000,0.300,102.000,0.500,42.000,1.000,5.000,5.000,0
"05/04/08","14:13:57",1226.000,"cc",28331.406,6,0.100,856.000,0.200,249.000,0.300,80.000,0.500,40.000,1.000,1.000,5.000,0
"05/04/08","14:14:03",1196.000,"cc",28349.262,6,0.100,839.000,0.200,228.000,0.300,81.000,0.500,45.000,1.000,3.000,5.000,0
"05/04/08","14:14:09",1139.000,"cc",28265.348,6,0.100,776.000,0.200,232.000,0.300,100.000,0.500,31.000,1.000,0,5.000,0
"05/04/08","14:14:15",1058.000,"cc",28239.506,6,0.100,752.000,0.200,192.000,0.300,76.000,0.500,35.000,1.000,3.000,5.000,0
"05/04/08","14:14:21",1136.000,"cc",28345.488,6,0.100,795.000,0.200,235.000,0.300,78.000,0.500,25.000,1.000,3.000,5.000,0
"05/04/08","14:14:27",1078.000,"cc",28353.523,6,0.100,767.000,0.200,201.000,0.300,79.000,0.500,27.000,1.000,4.000,5.000,0
"05/04/08","14:14:33",1087.000,"cc",28298.856,6,0.100,783.000,0.200,206.000,0.300,66.000,0.500,28.000,1.000,4.000,5.000,0
"05/04/08","14:14:39",1188.000,"cc",28312.373,6,0.100,849.000,0.200,221.000,0.300,79.000,0.500,36.000,1.000,3.000,5.000,0
"05/04/08","14:14:45",1161.000,"cc",28311.941,6,0.100,814.000,0.200,228.000,0.300,84.000,0.500,29.000,1.000,6.000,5.000,0
"05/04/08","14:14:51",1129.000,"cc",28337.676,6,0.100,818.000,0.200,210.000,0.300,73.000,0.500,27.000,1.000,1.000,5.000,0
"05/04/08","14:14:57",988.000,"cc",28329.385,6,0.100,719.000,0.200,183.000,0.300,57.000,0.500,27.000,1.000,2.000,5.000,0
"05/04/08","14:15:03",989.000,"cc",28290.436,6,0.100,718.000,0.200,195.000,0.300,47.000,0.500,29.000,1.000,0,5.000,0
"05/04/08","14:15:09",959.000,"cc",28327.008,6,0.100,685.000,0.200,204.000,0.300,48.000,0.500,20.000,1.000,2.000,5.000,0
"05/04/08","14:15:15",965.000,"cc",28278.568,6,0.100,706.000,0.200,181.000,0.300,39.000,0.500,37.000,1.000,2.000,5.000,0
"05/04/08","14:15:21",1135.000,"cc",28351.400,6,0.100,810.000,0.200,225.000,0.300,69.000,0.500,27.000,1.000,4.000,5.000,0
"05/04/08","14:15:27",1114.000,"cc",28273.184,6,0.100,795.000,0.200,218.000,0.300,68.000,0.500,30.000,1.000,3.000,5.000,0
"05/04/08","14:15:33",1215.000,"cc",28324.264,6,0.100,854.000,0.200,251.000,0.300,76.000,0.500,27.000,1.000,7.000,5.000,0
"05/04/08","14:15:39",1390.000,"cc",28320.922,6,0.100,931.000,0.200,299.000,0.300,123.000,0.500,32.000,1.000,5.000,5.000,0
"05/04/08","14:15:45",1854.000,"cc",28336.186,6,0.100,1286.000,0.200,395.000,0.300,144.000,0.500,25.000,1.000,4.000,5.000,0
"05/04/08","14:15:51",1668.000,"cc",28274.945,6,0.100,1139.000,0.200,379.000,0.300,122.000,0.500,25.000,1.000,3.000,5.000,0
"05/04/08","14:15:57",1955.000,"cc",28335.826,6,0.100,1360.000,0.200,444.000,0.300,133.000,0.500,16.000,1.000,2.000,5.000,0
"05/04/08","14:16:03",3383.000,"cc",28347.568,6,0.100,2554.000,0.200,649.000,0.300,142.000,0.500,30.000,1.000,8.000,5.000,0
"05/04/08","14:16:09",4183.000,"cc",28367.022,6,0.100,3286.000,0.200,737.000,0.300,140.000,0.500,19.000,1.000,1.000,5.000,0
"05/04/08","14:16:15",5192.000,"cc",28344.492,6,0.100,4163.000,0.200,871.000,0.300,137.000,0.500,21.000,1.000,0,5.000,0
"05/04/08","14:16:21",6958.000,"cc",28305.750,6,0.100,5589.000,0.200,1170.000,0.300,173.000,0.500,18.000,1.000,8.000,5.000,0
"05/04/08","14:16:27",3316.000,"cc",28280.699,6,0.100,2559.000,0.200,636.000,0.300,98.000,0.500,17.000,1.000,6.000,5.000,0
"05/04/08","14:16:33",2553.000,"cc",28305.678,6,0.100,1908.000,0.200,541.000,0.300,90.000,0.500,10.000,1.000,4.000,5.000,0
"05/04/08","14:16:39",3799.000,"cc",28303.471,6,0.100,2905.000,0.200,713.000,0.300,148.000,0.500,27.000,1.000,6.000,5.000,0
"05/04/08","14:16:45",4906.000,"cc",28340.418,6,0.100,3786.000,0.200,910.000,0.300,169.000,0.500,39.000,1.000,2.000,5.000,0
"05/04/08","14:16:51",3494.000,"cc",28310.824,6,0.100,2610.000,0.200,708.000,0.300,148.000,0.500,19.000,1.000,9.000,5.000,0
"05/04/08","14:16:57",2883.000,"cc",28355.395,6,0.100,2153.000,0.200,596.000,0.300,105.000,0.500,27.000,1.000,2.000,5.000,0
"05/04/08","14:17:03",3539.000,"cc",28303.744,6,0.100,2654.000,0.200,728.000,0.300,129.000,0.500,23.000,1.000,5.000,5.000,0
"05/04/08","14:17:09",2605.000,"cc",28277.549,6,0.100,1912.000,0.200,574.000,0.300,99.000,0.500,16.000,1.000,4.000,5.000,0
"05/04/08","14:17:15",3212.000,"cc",28311.141,6,0.100,2462.000,0.200,596.000,0.300,129.000,0.500,22.000,1.000,3.000,5.000,0
"05/04/08","14:17:21",3770.000,"cc",28002.738,6,0.100,2587.000,0.200,832.000,0.300,254.000,0.500,51.000,1.000,20.000,5.000,26.000
"05/04/08","14:17:27",2121.000,"cc",28189.379,6,0.100,1447.000,0.200,486.000,0.300,143.000,0.500,35.000,1.000,10.000,5.000,0
"05/04/08","14:17:33",1897.000,"cc",28665.102,6,0.100,1325.000,0.200,433.000,0.300,119.000,0.500,17.000,1.000,3.000,5.000,0
"05/04/08","14:17:39",1620.000,"cc",28460.498,6,0.100,1116.000,0.200,384.000,0.300,107.000,0.500,10.000,1.000,3.000,5.000,0
"05/04/08","14:17:45",2499.000,"cc",28363.281,6,0.100,1809.000,0.200,540.000,0.300,131.000,0.500,14.000,1.000,5.000,5.000,0
"05/04/08","14:17:51",1614.000,"cc",28298.656,6,0.100,1120.000,0.200,374.000,0.300,100.000,0.500,19.000,1.000,1.000,5.000,0
"05/04/08","14:17:57",2265.000,"cc",28357.967,6,0.100,1574.000,0.200,533.000,0.300,130.000,0.500,21.000,1.000,7.000,5.000,0
"05/04/08","14:18:03",10753.000,"cc",27668.717,6,0.100,7383.000,0.200,2002.000,0.300,603.000,0.500,377.000,1.000,260.000,5.000,128.000
"05/04/08","14:18:09",3410.000,"cc",26524.861,6,0.100,2417.000,0.200,712.000,0.300,185.000,0.500,72.000,1.000,24.000,5.000,0